• In Deutschland
  • Länderverzeichnis
  • Für 7 Tage
  • Wassertemperatur
  • Satellitenkarten
  • Wetterkarte
  • Widgets
  • user-avatar
    Anmelden

    Stündliche Wetter Diapaga

    Heute, 26 Mai, Samstag

    Zeit Temperatur Niederschläge Wind Luftdruck Luftfeuchtigkeit
    00:00 +37°C° 0 mm 4 m/S 732 mmHg 39%
    01:00 +36°C° 0 mm 5 m/S 732 mmHg 44%
    02:00 +35°C° 0 mm 5 m/S 732 mmHg 48%
    03:00 +34°C° 0 mm 5 m/S 732 mmHg 53%
    04:00 +34°C° 0 mm 5 m/S 732 mmHg 54%
    05:00 +33°C° 0 mm 6 m/S 732 mmHg 56%
    06:00 +32°C° 0 mm 6 m/S 733 mmHg 58%
    07:00 +34°C° 0 mm 6 m/S 733 mmHg 55%
    08:00 +35°C° 0 mm 6 m/S 734 mmHg 52%
    09:00 +36°C° 0 mm 6 m/S 734 mmHg 50%
    10:00 +38°C° 0 mm 6 m/S 734 mmHg 45%
    11:00 +40°C° 0 mm 5 m/S 734 mmHg 41%
    12:00 +41°C° 0 mm 5 m/S 734 mmHg 36%
    13:00 +42°C° 0 mm 4 m/S 733 mmHg 33%
    14:00 +43°C° 0 mm 3 m/S 732 mmHg 30%
    15:00 +44°C° 0 mm 3 m/S 732 mmHg 27%
    16:00 +42°C° 0 mm 2 m/S 732 mmHg 28%
    17:00 +42°C° 0 mm 2 m/S 731 mmHg 28%
    18:00 +41°C° 0 mm 2 m/S 731 mmHg 29%
    19:00 +40°C° 0,1 mm 3 m/S 732 mmHg 31%
    20:00 +40°C° 0,1 mm 4 m/S 732 mmHg 34%
    21:00 +39°C° 0,1 mm 5 m/S 733 mmHg 37%
    22:00 +37°C° 0,1 mm 5 m/S 733 mmHg 41%
    23:00 +36°C° 0,1 mm 5 m/S 733 mmHg 45%

    Morgen, 27 Mai, Sonntag

    Zeit Temperatur Niederschläge Wind Luftdruck Luftfeuchtigkeit
    00:00 +35°C° 0,1 mm 5 m/S 733 mmHg 49%
    01:00 +34°C° 2,7 mm 5 m/S 733 mmHg 55%
    02:00 +33°C° 2,7 mm 5 m/S 733 mmHg 60%
    03:00 +32°C° 2,7 mm 4 m/S 733 mmHg 66%
    04:00 +30°C° 1,7 mm 3 m/S 734 mmHg 66%
    05:00 +30°C° 1,7 mm 3 m/S 735 mmHg 67%
    06:00 +30°C° 1,7 mm 2 m/S 735 mmHg 67%
    07:00 +31°C° 0,1 mm 3 m/S 736 mmHg 65%
    08:00 +32°C° 0,1 mm 4 m/S 736 mmHg 63%
    09:00 +33°C° 0,1 mm 5 m/S 736 mmHg 61%
    10:00 +34°C° 0 mm 5 m/S 735 mmHg 55%
    11:00 +36°C° 0 mm 5 m/S 735 mmHg 49%
    12:00 +37°C° 0 mm 4 m/S 735 mmHg 43%
    13:00 +38°C° 0 mm 4 m/S 734 mmHg 41%
    14:00 +39°C° 0 mm 3 m/S 734 mmHg 38%
    15:00 +40°C° 0 mm 3 m/S 733 mmHg 36%
    16:00 +39°C° 0 mm 3 m/S 733 mmHg 37%
    17:00 +39°C° 0 mm 3 m/S 734 mmHg 38%
    18:00 +38°C° 0 mm 3 m/S 734 mmHg 39%
    19:00 +37°C° 0 mm 3 m/S 734 mmHg 42%
    20:00 +36°C° 0 mm 4 m/S 735 mmHg 44%
    21:00 +36°C° 0 mm 4 m/S 735 mmHg 47%
    22:00 +35°C° 0,1 mm 4 m/S 735 mmHg 49%
    23:00 +34°C° 0,1 mm 4 m/S 735 mmHg 52%

    übermorgen, 28 Mai, Montag

    Zeit Temperatur Niederschläge Wind Luftdruck Luftfeuchtigkeit
    00:00 +33°C° 0,1 mm 4 m/S 735 mmHg 54%
    01:00 +33°C° 0 mm 4 m/S 735 mmHg 56%
    02:00 +33°C° 0 mm 4 m/S 735 mmHg 58%
    03:00 +32°C° 0 mm 4 m/S 734 mmHg 60%
    04:00 +32°C° 0,1 mm 4 m/S 735 mmHg 62%
    05:00 +32°C° 0,1 mm 4 m/S 735 mmHg 63%
    06:00 +30°C° 0,1 mm 3 m/S 736 mmHg 65%
    07:00 +32°C° 0 mm 4 m/S 736 mmHg 62%
    08:00 +33°C° 0 mm 5 m/S 736 mmHg 59%
    09:00 +33°C° 0 mm 5 m/S 736 mmHg 56%
    10:00 +35°C° 0 mm 5 m/S 736 mmHg 51%
    11:00 +36°C° 0 mm 4 m/S 735 mmHg 46%
    12:00 +38°C° 0 mm 3 m/S 735 mmHg 41%
    13:00 +39°C° 0 mm 3 m/S 734 mmHg 38%
    14:00 +39°C° 0 mm 3 m/S 734 mmHg 36%
    15:00 +40°C° 0 mm 2 m/S 733 mmHg 33%
    16:00 +40°C° 0 mm 2 m/S 734 mmHg 33%
    17:00 +39°C° 0 mm 2 m/S 734 mmHg 34%
    18:00 +39°C° 0 mm 1 m/S 734 mmHg 34%
    19:00 +37°C° 0,1 mm 1 m/S 734 mmHg 37%
    20:00 +38°C° 0,1 mm 2 m/S 735 mmHg 39%
    21:00 +37°C° 0,1 mm 2 m/S 735 mmHg 41%
    22:00 +36°C° 0 mm 2 m/S 735 mmHg 43%
    23:00 +36°C° 0 mm 2 m/S 735 mmHg 44%

    29 Mai, Dienstag

    Zeit Temperatur Niederschläge Wind Luftdruck Luftfeuchtigkeit
    00:00 +35°C° 0 mm 2 m/S 735 mmHg 46%
    01:00 +35°C° 0,2 mm 3 m/S 734 mmHg 48%
    02:00 +34°C° 0,2 mm 3 m/S 734 mmHg 49%
    03:00 +34°C° 0,2 mm 4 m/S 734 mmHg 51%
    04:00 +33°C° 0 mm 4 m/S 734 mmHg 52%
    05:00 +33°C° 0 mm 4 m/S 734 mmHg 54%
    06:00 +33°C° 0 mm 5 m/S 734 mmHg 55%
    07:00 +34°C° 0 mm 5 m/S 735 mmHg 52%
    08:00 +35°C° 0 mm 5 m/S 735 mmHg 49%
    09:00 +36°C° 0 mm 5 m/S 736 mmHg 46%
    10:00 +37°C° 0 mm 4 m/S 735 mmHg 43%
    11:00 +40°C° 0 mm 4 m/S 735 mmHg 39%
    12:00 +41°C° 0 mm 4 m/S 734 mmHg 36%
    13:00 +42°C° 0 mm 3 m/S 734 mmHg 34%
    14:00 +42°C° 0 mm 3 m/S 733 mmHg 31%
    15:00 +42°C° 0 mm 2 m/S 732 mmHg 29%
    16:00 +42°C° 0 mm 2 m/S 732 mmHg 30%
    17:00 +41°C° 0 mm 2 m/S 732 mmHg 30%
    18:00 +41°C° 0 mm 2 m/S 733 mmHg 31%
    19:00 +40°C° 0 mm 2 m/S 733 mmHg 33%
    20:00 +39°C° 0 mm 3 m/S 733 mmHg 35%
    21:00 +40°C° 0 mm 4 m/S 734 mmHg 37%
    22:00 +38°C° 0 mm 4 m/S 733 mmHg 40%
    23:00 +37°C° 0 mm 4 m/S 733 mmHg 43%

    30 Mai, Mittwoch

    Zeit Temperatur Niederschläge Wind Luftdruck Luftfeuchtigkeit
    00:00 +36°C° 0 mm 5 m/S 733 mmHg 46%
    01:00 +35°C° 0 mm 5 m/S 733 mmHg 49%
    02:00 +34°C° 0 mm 5 m/S 732 mmHg 52%
    03:00 +34°C° 0 mm 5 m/S 732 mmHg 55%
    04:00 +33°C° 0 mm 5 m/S 732 mmHg 57%
    05:00 +33°C° 0 mm 5 m/S 733 mmHg 59%
    06:00 +32°C° 0 mm 5 m/S 733 mmHg 60%
    07:00 +33°C° 0 mm 5 m/S 734 mmHg 57%
    08:00 +34°C° 0 mm 5 m/S 734 mmHg 53%
    09:00 +35°C° 0 mm 5 m/S 735 mmHg 49%
    10:00 +37°C° 0 mm 5 m/S 734 mmHg 45%
    11:00 +39°C° 0 mm 5 m/S 734 mmHg 41%
    12:00 +41°C° 0 mm 4 m/S 734 mmHg 37%
    13:00 +42°C° 0 mm 4 m/S 733 mmHg 35%
    14:00 +42°C° 0 mm 3 m/S 733 mmHg 34%
    15:00 +43°C° 0 mm 3 m/S 732 mmHg 32%
    16:00 +42°C° 0 mm 3 m/S 732 mmHg 33%
    17:00 +41°C° 0 mm 2 m/S 732 mmHg 34%
    18:00 +40°C° 0 mm 2 m/S 732 mmHg 36%
    19:00 +39°C° 0,9 mm 3 m/S 733 mmHg 41%
    20:00 +37°C° 0,9 mm 3 m/S 733 mmHg 46%
    21:00 +36°C° 0,9 mm 3 m/S 733 mmHg 51%
    22:00 +35°C° 0,2 mm 4 m/S 733 mmHg 55%
    23:00 +34°C° 0,2 mm 5 m/S 733 mmHg 59%

    31 Mai, Donnerstag

    Zeit Temperatur Niederschläge Wind Luftdruck Luftfeuchtigkeit
    00:00 +33°C° 0,2 mm 5 m/S 733 mmHg 64%
    01:00 +33°C° 0,1 mm 5 m/S 733 mmHg 63%
    02:00 +33°C° 0,1 mm 5 m/S 733 mmHg 63%
    03:00 +33°C° 0,1 mm 5 m/S 733 mmHg 63%
    04:00 +32°C° 0 mm 6 m/S 733 mmHg 64%
    05:00 +32°C° 0 mm 6 m/S 734 mmHg 65%
    06:00 +30°C° 0 mm 6 m/S 734 mmHg 66%
    07:00 +32°C° 0,1 mm 6 m/S 735 mmHg 64%
    08:00 +32°C° 0,1 mm 5 m/S 735 mmHg 62%
    09:00 +33°C° 0,1 mm 5 m/S 736 mmHg 60%
    10:00 +34°C° 0 mm 5 m/S 736 mmHg 55%
    11:00 +36°C° 0 mm 5 m/S 735 mmHg 51%
    12:00 +37°C° 0 mm 5 m/S 735 mmHg 46%
    13:00 +38°C° 0 mm 4 m/S 734 mmHg 44%
    14:00 +38°C° 0 mm 4 m/S 734 mmHg 42%
    15:00 +40°C° 0 mm 4 m/S 733 mmHg 40%
    16:00 +38°C° 0 mm 4 m/S 734 mmHg 42%
    17:00 +37°C° 0 mm 3 m/S 734 mmHg 43%
    18:00 +37°C° 0 mm 3 m/S 734 mmHg 45%
    19:00 +36°C° 0 mm 3 m/S 734 mmHg 46%
    20:00 +36°C° 0 mm 3 m/S 735 mmHg 48%
    21:00 +35°C° 0 mm 3 m/S 735 mmHg 49%
    22:00 +35°C° 0,1 mm 2 m/S 735 mmHg 50%
    23:00 +35°C° 0,1 mm 2 m/S 735 mmHg 51%
    Mehr zeigen